www.pogodaiklimat.ru

Погода и климат >> Архив погоды >> Украина >> Винница


АРХИВ ПОГОДЫ в Виннице

Время (UTC), дата Ветер
(напр.,м/с)
 
Видим.   Явления Облачность Т
(С)
Тd
(С)
f
(%)
Тe
(С)
Тes
(С)
Комфортность P
(гПа)
Po
(гПа)
Тmin
(С)
Tmax
(С)
R
(мм)
R24
(мм)
S
(см)
00 15.02 СВ 4 5000 м дымка 10/10 270 м
[St]
-5.4 -6.4 93 -12 -12 по сезону 1023.1 985.2
03 15.02 СВ 4 2400 м слабый ливневой снег 10/10 180 м
[Cb cap]
-5.0 -6.0 93 -12 -12 по сезону 1023.2 985.3
06 15.02 СВ 4 2100 м слабый ливневой снег 10/10 210 м
[Cb cap]
-4.6 -5.2 96 -11 -11 по сезону 1024.5 986.6 -5.6 0.6 15
09 15.02 СВ 5 2400 м слабый ливневой снег 10/10 330 м
[Cb cap]
-3.0 -4.7 88 -10 -10 по сезону 1025.0 987.3
12 15.02 СВ 4 4900 м в посл. час ливневой снег 10/8 420 м
[Cb cap Ac und]
-1.9 -3.7 87 -8 -8 по сезону 1024.9 987.4
15 15.02 СВ 4 1600 м слабый снег {ливн. осадки} 10/9 180 м
[Frnb As op]
-2.0 -2.9 94 -8 -8 по сезону 1025.9 988.3
18 15.02 СВ 4 2500 м слабый снег {ливн. осадки} 10/9 150 м
[Frnb As op]
-1.7 -2.5 94 -8 -8 по сезону 1026.8 989.3 -1.6 2
21 15.02 В 2 2700 м дымка {снег} 10/10 150 м
[St]
-1.5 -2.3 94 -6 -6 по сезону 1027.2 989.7
00 16.02 В 2 2100 м дымка {снег} 10/10 120 м
[St]
-1.4 -2.2 94 -5 -5 по сезону 1027.2 989.7
03 16.02 В 3 1800 м слабый снег 10/9 150 м
[Frnb As op]
-1.7 -2.5 94 -7 -7 по сезону 1026.8 989.3
06 16.02 В 2 1600 м слабый снег 10/9 150 м
[Frnb As op]
-1.9 -2.5 96 -6 -6 по сезону 1027.4 989.8 -2.0 0.4 16
09 16.02 ЮВ 3 1700 м слабый снег 10/9 90 м
[Frnb As op]
-1.3 -1.8 96 -6 -6 по сезону 1026.8 989.3
12 16.02 Ю 3 4000 м слабый ливневой снег 10/10 120 м
[Cb cap]
-0.2 -1.4 92 -5 -5 по сезону 1026.1 988.8
15 16.02 Ю 2 1200 м слабый снег {ливн. осадки} 10/9 60 м
[Frnb As op]
0.0 -0.6 96 -4 -4 по сезону 1025.7 988.4
18 16.02 ЮЗ 2 1900 м дымка {ливн. осадки, снег} 10/10 120 м
[St]
0.0 -0.6 96 -4 -4 по сезону 1025.7 988.4 +0.3 0.6
21 16.02 штиль 0 2800 м дымка 10/10 240 м
[St]
-0.4 -1.3 94 -2 -2 тепло 1025.7 988.4
00 17.02 З 3 4000 м дымка 10/10 300 м
[St]
-0.6 -1.5 94 -6 -6 по сезону 1025.8 988.4
03 17.02 З 2 1100 м дымка 8/0
[Ac trans]
-3.3 -4.0 95 -8 -8 по сезону 1026.1 988.4
06 17.02 З 2 4000 м дымка 10/10 600 м
[Sc]
-1.5 -2.3 94 -6 -6 по сезону 1025.7 988.2 -3.9 13
09 17.02 СЗ 3 13 км 3/3 600 м
[Sc]
+0.6 -4.8 67 -4 -1 по сезону 1025.5 988.3
12 17.02 СЗ 3 13 км 6/3 600 м
[Sc Ci fib]
+1.6 -4.2 65 -2 -0 по сезону 1024.5 987.5
15 17.02 З 2 13 км 4/3 600 м
[Sc Ci fib]
+1.4 -5.7 59 -1 -1 тепло 1023.8 986.8
18 17.02 СЗ 2 13 км 3/0
[Ac trans]
-1.2 -5.2 74 -5 -5 по сезону 1024.4 987.0 +2.6
21 17.02 ЮЗ 3 13 км ясно -3.8 -5.3 89 -9 -9 по сезону 1024.0 986.3
00 18.02 ЮЗ 2 13 км 6/0
[Ac trans]
-4.6 -5.5 93 -9 -9 по сезону 1024.2 986.3
03 18.02 ЮЗ 2 13 км 8/0
[Ci fib]
-4.8 -5.8 93 -9 -9 по сезону 1023.4 985.5
06 18.02 ЮЗ 2 13 км 9/0
[Ac trans Ci]
-4.8 -6.1 91 -9 -9 по сезону 1023.6 985.7 -5.1 13
09 18.02 ЮЗ 2 13 км 9/3 1000 м
[Sc Ci]
-2.2 -5.8 76 -6 -3 по сезону 1023.2 985.7
12 18.02 ЮЗ 2 13 км 9/3 1000 м
[Sc Ac trans]
+1.2 -5.5 61 -2 -0 по сезону 1022.3 985.3
15 18.02 З 2 13 км 10/4 600 м
[Sc Ac und]
+1.3 -5.0 63 -2 -2 по сезону 1022.4 985.4
18 18.02 З 3 13 км 10/3 600 м
[Sc Ac und]
+0.1 -3.3 78 -4 -4 по сезону 1023.2 986.0 +1.8
21 18.02 СЗ 5 7000 м слабый ливневой снег 10/10 360 м
[Cb cap]
-1.0 -2.3 91 -7 -7 по сезону 1024.1 986.7
00 19.02 СЗ 5 13 км {ливн. осадки} 9/6 540 м
[Sc Ac trans]
-3.5 -7.9 72 -10 -10 по сезону 1025.4 987.6
03 19.02 СЗ 5 10 км слабый ливневой снег 10/8 480 м
[Cb cap Ac und]
-4.4 -7.1 81 -11 -11 по сезону 1025.6 987.7
06 19.02 СЗ 3 13 км {ливн. осадки} 6/4 600 м
[Sc Ac trans]
-6.1 -8.0 86 -12 -12 по сезону 1026.9 988.7 -6.2 0.5
09 19.02 С 5 13 км {ливн. осадки} 8/6 750 м
[Cb cap Ac trans]
-3.8 -7.1 78 -11 -10 прохладно 1026.9 989.1
12 19.02 СЗ 4 13 км {ливн. осадки} 4/0
[Ac trans]
-1.8 -7.9 63 -7 -5 по сезону 1026.5 988.9
15 19.02 СЗ 2 13 км 3/0
[Ac trans]
-2.6 -7.8 67 -6 -6 по сезону 1026.3 988.6
18 19.02 З 2 13 км 3/0
[Ci fib]
-6.6 -10.7 73 -11 -11 прохладно 1027.2 988.9 -1.4 0.0
21 19.02 штиль 0 7000 м дымка ясно -7.3 -9.0 88 -8 -8 по сезону 1027.3 988.9
00 20.02 штиль 0 3000 м дымка ясно -8.4 -9.0 95 -9 -9 по сезону 1027.4 988.9
03 20.02 ЮЗ 2 1200 м дымка ясно -10.6 -11.3 95 -15 -15 прохладно 1027.2 988.4
06 20.02 штиль 0 1800 м в посл. час туман 3/0
[Ci fib]
-10.0 -10.6 95 -10 -10 по сезону 1027.3 988.6 -12.4 12
09 20.02 штиль 0 6000 м дымка 4/0
[Ci fib]
-4.4 -6.0 89 -5 +1 по сезону 1026.5 988.6
12 20.02 В 2 13 км 3/0
[Ci fib]
-1.6 -7.6 64 -5 -1 по сезону 1025.4 987.9
15 20.02 В 2 13 км 4/0
[Ci fib]
-3.2 -8.7 66 -7 -7 по сезону 1024.7 987.0
18 20.02 В 2 13 км 3/0
[Ci fib]
-6.0 -8.7 81 -10 -10 по сезону 1025.1 987.0 -0.8
21 20.02 В 3 13 км ясно -7.8 -9.6 87 -14 -14 прохладно 1025.4 987.0
00 21.02 В 3 13 км 8/0
[Ac trans]
-10.0 -11.3 90 -16 -16 холодно 1025.7 987.0
03 21.02 В 3 13 км 6/0
[Ac trans Ci fib]
-8.8 -10.3 89 -15 -15 холодно 1024.8 986.3
06 21.02 В 3 13 км 10/5 800 м
[Sc Ac und]
-9.2 -10.3 92 -15 -15 прохладно 1024.7 986.2 -10.3 12
09 21.02 ЮВ 4 13 км 9/4 600 м
[Sc Ac trans]
-3.2 -6.0 81 -9 -8 по сезону 1024.1 986.4
12 21.02 ЮВ 4 13 км 9/3 1000 м
[Sc Ac trans]
-1.0 -7.1 63 -6 -5 по сезону 1022.7 985.4
15 21.02 ЮВ 4 13 км 10/4 600 м
[Sc Ac und]
-2.2 -8.5 62 -8 -8 по сезону 1022.2 984.7
18 21.02 В 2 13 км 5/3 1000 м
[Sc Ac trans]
-3.8 -7.1 78 -8 -8 по сезону 1022.9 985.2 -0.8
21 21.02 В 4 3200 м слабый ливневой снег 10/10 360 м
[Cb cap]
-4.2 -5.8 89 -11 -11 по сезону 1023.2 985.4

 

Местоположение метеостанции Винница (Винницкая область, Украина): широта 49.23 долгота 28.60 высота над уровнем моря 298 м.

В архиве по умолчанию представлена погода в Виннице за последнюю неделю. Архивные данные за месяц целиком и за предыдущие месяцы, начиная с января 2011 года, Вы можете получить, выбрав интересующий диапазон дат из раскрывающегося списка и нажав кнопку "Ввод!".

Внимание! Время в таблицах - всемирное. Для получения местного времени необходимо прибавить поправку, которая в Виннице равна 2 ч.

Смотрите также архив погоды в соседних городах и на ближайших метеорологических станциях:

Погода в Жмеринке (Винницкая область, Украина) (42 км)
Погода в Белополе (Винницкая область, Украина) (70 км)
Погода в Гайсине (Винницкая область, Украина) (75 км)
Погода в Хмельнике (Винницкая область, Украина) (76 км)
Погода в Могилев-Подольском (Винницкая область, Украина) (105 км)
Погода в Новой Ушице (Хмельницкая область, Украина) (106 км)
Погода в Жашкове (Черкасская область, Украина) (109 км)
Погода в Житомире (Житомирская область, Украина) (112 км)
Погода в Новоднестровске (Черновицкая область, Украина) (112 км)
Погода в Сороках (Молдова) (117 км)

Пояснения к столбцам:

Ветер - указаны скорость ветра в м/с - средняя за 10 мин, порывы в срок и между сроками (в фигурных скобках) и направление, откуда дует ветер: С - северный, СВ - северо-восточный, В - восточный, ЮВ - юго-восточный, Ю - южный, ЮЗ - юго-западный, З - западный, СЗ - северо-западный.
Видимость - горизонтальная дальность видимости в метрах или километрах. При видимости от 1 до 10 км при отсутствии осадков обычно наблюдается дымка, при ухудшении видимости до 1 км и менее - туман. В сухую погоду видимость может ухудшаться дымом, пылью или мглою.
Явления - указаны атмосферные явления, наблюдавшиеся в срок или в последний час перед сроком; фигурными скобками обозначены явления, наблюдавшиеся между сроками (за 1-3 часа до срока); квадратными скобками обозначены град или гололедные отложения с указанием их диаметра в мм.
Облачность - указаны через наклонную черту общая и нижняя облачность в баллах и высота нижней границы облаков в метрах; квадратными скобками обозначены формы облаков: Ci - перистые, Cs - перисто-слоистые, Cc - перисто-кучевые, Ac - высококучевые, As - высокослоистые, Sc - слоисто-кучевые, Ns - слоисто-дождевые, Cu - кучевые, Cb - кучево-дождевые. Подробнее классификацию облаков см. в Атласе облаков (PDF).
T - Температура воздуха - температура, измеренная на высоте 2 м над землей.
Td - Температура точки росы - температура, при понижении до которой содержащийся в воздухе водяной пар достигнет насыщения.
f - Относительная влажность воздуха - влажноcть воздуха, измеренная на высоте 2 м над землей.
Te - Эффективная температура - температура, которую ощущает одетый по сезону человек в тени. Характеристика душности погоды. При расчете учитывается влияние влажности воздуха и скорости ветра на теплоощущения человека.
Tes - Эффективная температура на солнце - температура, которую ощущает человек, с поправкой на солнечный нагрев. Характеристика знойности погоды. Зависит от высоты солнца над горизонтом, облачности и скорости ветра. Ночью, в пасмурную погоду, а также при ветре 12 м/с и более поправка равна нулю.
P - Атмосферное давление - приведенное к уровню моря атмосферное давление.
Po - Атмосферное давление - измеренное на уровне метеостанции атмосферное давление.
Tmin - Минимальная температура - минимум температуры воздуха на высоте 2 м над землей.
Tmax - Максимальная температура - максимум температуры воздуха на высоте 2 м над землей.
R - Количество осадков - Количество выпавших осадков за период времени, мм. При наведении курсора мыши на число - период времени, за который выпало указанное количество осадков.
R24 - Количество осадков - Количество выпавших осадков за 24 часа, мм.
S - Снежный покров - Высота снежного покрова, см. При наведении курсора мыши на число - состояние снежного покрова и степень покрытия местности в баллах.